This demonstration page uses our WeatherBlox Daily Observations layout. Learn more.

Left ArrowRight Arrow

36.19886, -115.1175

Hourly Observations for February 22, 2017

Temp ( °F °C ) Dew Point ( °F °C ) Humidity (%) Winds ( mph kmh ) Pressure ( in mb ) Visibility ( mi km ) Precip ( " mm )
12:53 am 00:53 Clear 61 16.1 33 0.6 35 35 SSW 26 43 29.97 1015 10 16 0.00 0.00
1:53 am 01:53 Clear 61 16.1 30 -1.1 31 31 SW 25 41 29.96 1014 10 16 0.00 0.00
2:53 am 02:53 Clear 59 15 33 0.6 38 38 SSW 23 37 29.94 1014 10 16 0.00 0.00
3:53 am 03:53 Clear 59 15 27 -2.8 29 29 SW 18 30 29.92 1013 10 16 0.00 0.00
4:53 am 04:53 Clear 54 12.2 38 3.3 55 55 S 5 7 29.94 1014 10 16 0.00 0.00
5:53 am 05:53 Clear 53 11.7 35 1.7 51 51 S 6 9 29.93 1014 10 16 0.00 0.00
6:53 am 06:53 Sunny 52 11.1 36 2.2 55 55 WSW 8 13 29.95 1014 10 16 0.00 0.00
7:53 am 07:53 Sunny 55 12.8 35 1.7 47 47 W 10 17 29.95 1014 10 16 0.00 0.00
8:53 am 08:53 Sunny 58 14.4 34 1.1 41 41 NW 8 13 29.95 1014 10 16 0.00 0.00
9:53 am 09:53 Sunny 61 16.1 25 -3.9 25 25 SSW 18 30 29.93 1014 10 16 0.00 0.00
10:53 am 10:53 Sunny 63 17.2 23 -5 22 22 SSW 18 30 29.91 1013 10 16 0.00 0.00
11:53 am 11:53 Sunny 65 18.3 23 -5 20 20 SSW 24 39 29.86 1011 10 16 0.00 0.00
12:09 pm 12:09 Sunny 65 18.3 21 -6.1 19 19 SW 18 30 29.77 1008 10 16 0.00 0.00
12:53 pm 12:53 Sunny 64 17.8 20 -6.7 18 18 WSW 16 26 29.84 1011 10 16 0.00 0.00
1:53 pm 13:53 Sunny 64 17.8 23 -5 21 21 WSW 24 39 29.81 1009 10 16 0.00 0.00
2:53 pm 14:53 Sunny 64 17.8 23 -5 21 21 WSW 20 31 29.79 1009 10 16 0.00 0.00
3:53 pm 15:53 Sunny 63 17.2 21 -6.1 20 20 W 18 30 29.79 1009 10 16 0.00 0.00
4:08 pm 16:08 Sunny 63 17 21 -6 20 20 WSW 18 30 29.71 1006 10 16 0.00 0.00
4:53 pm 16:53 Mostly Cloudy 61 16.1 23 -5 23 23 W 17 28 29.79 1009 10 16 0.00 0.00
5:44 pm 17:44 Clear 55 13 28 -2 36 36 NNW 30 48 29.74 1007 10 16 0.00 0.00
5:53 pm 17:53 Clear 54 12.2 29 -1.7 38 38 NNW 30 48 29.82 1010 10 16 0.00 0.00
6:53 pm 18:53 Mostly Cloudy 48 8.9 32 0 54 54 NNW 36 57 29.87 1011 10 16 0.00 0.00
7:53 pm 19:53 Cloudy 47 8.3 33 0.6 59 59 NNW 36 57 29.88 1012 10 16 0.00 0.03
8:53 pm 20:53 Cloudy 49 9.4 28 -2.2 44 44 NNW 9 15 29.88 1012 10 16 0.00 0.00
9:53 pm 21:53 Cloudy 48 8.9 30 -1.1 50 50 NNE 7 11 29.88 1012 10 16 0.00 0.00
10:53 pm 22:53 Mostly Cloudy 49 9.4 27 -2.8 43 43 NNW 8 13 29.89 1012 10 16 0.00 0.00
11:53 pm 23:53 Mostly Cloudy 48 8.9 28 -2.2 46 46 NW 8 13 29.89 1012 10 16 0.00 0.00

Powered by AerisWeather